Time,TemperatureF,DewpointF,PressureIn,WindDirection,WindDirectionDegrees,WindSpeedMPH,WindSpeedGustMPH,Humidity,HourlyPrecipIn,Conditions,Clouds,dailyrainin,SoftwareType,DateUTC
2013-03-02 00:00:00,48.8,43.5,30.26,WNW,291,0.0,0.0,82,0.00,CLR,FEW,0.00,WeatherDisplay:10.37,2013-03-02 06:00:00,
2013-03-02 00:05:00,48.5,43.6,30.26,WNW,294,0.0,0.0,83,0.00,CLR,FEW,0.00,WeatherDisplay:10.37,2013-03-02 06:05:00,
2013-03-02 00:10:00,48.2,43.3,30.26,WNW,294,0.0,0.0,83,0.00,CLR,FEW,0.00,WeatherDisplay:10.37,2013-03-02 06:10:00,
2013-03-02 00:15:00,48.0,43.1,30.26,WNW,294,0.0,0.0,83,0.00,CLR,FEW,0.00,WeatherDisplay:10.37,2013-03-02 06:15:00,
2013-03-02 00:20:00,47.7,43.1,30.27,NE,45,0.2,2.3,84,0.00,CLR,FEW,0.00,WeatherDisplay:10.37,2013-03-02 06:20:00,
2013-03-02 00:25:00,47.9,43.9,30.26,NE,41,0.0,0.0,86,0.00,CLR,FEW,0.00,WeatherDisplay:10.37,2013-03-02 06:25:00,
2013-03-02 00:30:00,48.1,44.1,30.26,West,276,0.0,0.0,86,0.00,CLR,FEW,0.00,WeatherDisplay:10.37,2013-03-02 06:30:00,
2013-03-02 00:35:00,48.1,44.1,30.27,West,276,0.0,0.0,86,0.00,CLR,FEW,0.00,WeatherDisplay:10.37,2013-03-02 06:35:00,
2013-03-02 00:40:00,48.2,44.5,30.27,NNE,16,0.1,1.1,87,0.00,CLR,FEW,0.00,WeatherDisplay:10.37,2013-03-02 06:40:00,
2013-03-02 00:45:00,48.5,45.1,30.27,North,5,0.3,2.3,88,0.00,CLR,FEW,0.00,WeatherDisplay:10.37,2013-03-02 06:45:00,
2013-03-02 00:50:00,48.7,45.3,30.27,North,4,0.0,2.3,88,0.00,CLR,FEW,0.00,WeatherDisplay:10.37,2013-03-02 06:50:00,
2013-03-02 00:55:00,48.7,45.3,30.28,North,5,0.0,0.0,88,0.00,CLR,FEW,0.00,WeatherDisplay:10.37,2013-03-02 06:55:00,
2013-03-02 01:00:00,48.7,45.3,30.27,NNE,14,0.0,2.3,88,0.00,CLR,FEW,0.00,WeatherDisplay:10.37,2013-03-02 07:00:00,
2013-03-02 01:05:00,48.6,45.2,30.28,NNE,14,0.1,2.3,88,0.00,CLR,FEW,0.00,WeatherDisplay:10.37,2013-03-02 07:05:00,
2013-03-02 01:10:00,48.6,45.2,30.28,NNE,14,0.0,0.0,88,0.00,CLR,FEW,0.00,WeatherDisplay:10.37,2013-03-02 07:10:00,
2013-03-02 01:15:00,48.5,45.4,30.27,NNE,14,0.0,0.0,89,0.00,CLR,FEW,0.00,WeatherDisplay:10.37,2013-03-02 07:15:00,
2013-03-02 01:20:00,48.3,45.2,30.27,NNE,14,0.0,0.0,89,0.00,CLR,FEW,0.00,WeatherDisplay:10.37,2013-03-02 07:20:00,
2013-03-02 01:25:00,47.9,44.8,30.28,NNE,14,0.0,0.0,89,0.00,CLR,FEW,0.00,WeatherDisplay:10.37,2013-03-02 07:25:00,
2013-03-02 01:30:00,47.9,45.1,30.28,ENE,64,0.3,2.3,90,0.00,CLR,FEW,0.00,WeatherDisplay:10.37,2013-03-02 07:30:00,
2013-03-02 01:35:00,48.0,45.2,30.28,NNE,29,0.4,1.9,90,0.00,CLR,FEW,0.00,WeatherDisplay:10.37,2013-03-02 07:35:00,
2013-03-02 01:40:00,48.0,45.5,30.28,NNE,24,0.5,0.0,91,0.00,CLR,FEW,0.00,WeatherDisplay:10.37,2013-03-02 07:40:00,
2013-03-02 01:45:00,48.1,45.6,30.28,North,5,0.0,2.3,91,0.00,CLR,FEW,0.00,WeatherDisplay:10.37,2013-03-02 07:45:00,
2013-03-02 01:50:00,48.1,45.6,30.28,NNE,24,0.4,0.0,91,0.00,CLR,FEW,0.00,WeatherDisplay:10.37,2013-03-02 07:50:00,
2013-03-02 01:55:00,48.1,45.6,30.28,NNE,24,0.0,0.0,91,0.00,CLR,FEW,0.00,WeatherDisplay:10.37,2013-03-02 07:55:00,
2013-03-02 02:00:00,48.2,45.7,30.28,NNE,26,0.1,0.0,91,0.00,CLR,FEW,0.00,WeatherDisplay:10.37,2013-03-02 08:00:00,
2013-03-02 02:05:00,48.2,45.7,30.27,NNE,25,0.0,0.0,91,0.00,CLR,FEW,0.00,WeatherDisplay:10.37,2013-03-02 08:05:00,
2013-03-02 02:10:00,48.2,45.4,30.27,NNE,32,0.0,0.0,90,0.00,CLR,FEW,0.00,WeatherDisplay:10.37,2013-03-02 08:10:00,
2013-03-02 02:15:00,48.0,45.2,30.27,NNE,32,0.0,0.0,90,0.00,CLR,FEW,0.00,WeatherDisplay:10.37,2013-03-02 08:15:00,
2013-03-02 02:20:00,47.9,45.1,30.27,NNE,32,0.0,0.0,90,0.00,CLR,FEW,0.00,WeatherDisplay:10.37,2013-03-02 08:20:00,
2013-03-02 02:25:00,47.5,44.7,30.27,NNE,32,0.0,0.0,90,0.00,CLR,FEW,0.00,WeatherDisplay:10.37,2013-03-02 08:25:00,
2013-03-02 02:30:00,47.4,44.6,30.27,NNE,32,0.0,0.0,90,0.00,CLR,FEW,0.00,WeatherDisplay:10.37,2013-03-02 08:30:00,
2013-03-02 02:35:00,47.1,44.3,30.27,NNE,32,0.0,0.0,90,0.00,CLR,FEW,0.00,WeatherDisplay:10.37,2013-03-02 08:35:00,
2013-03-02 02:40:00,47.1,44.3,30.27,NNE,32,0.0,0.0,90,0.00,CLR,FEW,0.00,WeatherDisplay:10.37,2013-03-02 08:40:00,
2013-03-02 02:45:00,46.9,44.1,30.27,NNE,32,0.0,0.0,90,0.00,CLR,FEW,0.00,WeatherDisplay:10.37,2013-03-02 08:45:00,
2013-03-02 02:50:00,46.7,43.9,30.27,NNE,32,0.0,0.0,90,0.00,CLR,FEW,0.00,WeatherDisplay:10.37,2013-03-02 08:50:00,
2013-03-02 02:55:00,46.4,43.6,30.28,NNE,32,0.3,0.0,90,0.00,CLR,FEW,0.00,WeatherDisplay:10.37,2013-03-02 08:55:00,
2013-03-02 03:00:00,46.4,43.6,30.28,North,350,0.4,2.3,90,0.00,CLR,FEW,0.00,WeatherDisplay:10.37,2013-03-02 09:00:00,
2013-03-02 03:05:00,46.6,43.5,30.28,NE,49,0.7,2.3,89,0.00,,FEW,0.00,WeatherDisplay:10.37,2013-03-02 09:05:00,
2013-03-02 03:10:00,46.7,43.3,30.28,NE,56,0.3,2.3,88,0.00,,FEW,0.00,WeatherDisplay:10.37,2013-03-02 09:10:00,
2013-03-02 03:15:00,46.7,43.3,30.28,NE,54,0.0,0.0,88,0.00,,FEW,0.00,WeatherDisplay:10.37,2013-03-02 09:15:00,
2013-03-02 03:20:00,46.7,43.0,30.28,NNE,30,0.4,0.0,87,0.00,,FEW,0.00,WeatherDisplay:10.37,2013-03-02 09:20:00,
2013-03-02 03:25:00,46.6,42.9,30.28,NNE,31,0.0,0.0,87,0.00,,FEW,0.00,WeatherDisplay:10.37,2013-03-02 09:25:00,
2013-03-02 03:30:00,46.5,42.8,30.28,NNE,21,0.0,2.3,87,0.00,,FEW,0.00,WeatherDisplay:10.37,2013-03-02 09:30:00,
2013-03-02 03:35:00,46.6,43.2,30.28,NNE,20,0.3,2.3,88,0.00,,FEW,0.00,WeatherDisplay:10.37,2013-03-02 09:35:00,
2013-03-02 03:40:00,46.7,43.3,30.28,NNE,18,0.0,2.3,88,0.00,,FEW,0.00,WeatherDisplay:10.37,2013-03-02 09:40:00,
2013-03-02 03:45:00,46.8,43.7,30.28,NW,321,0.6,2.3,89,0.00,,FEW,0.00,WeatherDisplay:10.37,2013-03-02 09:45:00,
2013-03-02 03:50:00,47.1,43.7,30.28,North,5,0.5,2.3,88,0.00,,FEW,0.00,WeatherDisplay:10.37,2013-03-02 09:50:00,
2013-03-02 03:55:00,47.2,43.8,30.28,North,2,0.0,0.0,88,0.00,,FEW,0.00,WeatherDisplay:10.37,2013-03-02 09:55:00,
2013-03-02 04:00:00,47.0,43.3,30.28,NNE,25,0.7,2.3,87,0.00,,FEW,0.00,WeatherDisplay:10.37,2013-03-02 10:00:00,
2013-03-02 04:05:00,47.0,43.0,30.29,North,353,0.2,0.0,86,0.00,,FEW,0.00,WeatherDisplay:10.37,2013-03-02 10:05:00,
2013-03-02 04:11:00,46.9,42.9,30.29,NNE,25,0.0,2.3,86,0.00,,FEW,0.00,WeatherDisplay:10.37,2013-03-02 10:11:00,
2013-03-02 04:16:00,46.9,42.9,30.30,NNE,26,0.9,3.5,86,0.00,,FEW,0.00,WeatherDisplay:10.37,2013-03-02 10:16:00,
2013-03-02 04:21:00,47.2,42.9,30.29,NNE,12,0.1,2.3,85,0.00,,FEW,0.00,WeatherDisplay:10.37,2013-03-02 10:21:00,
2013-03-02 04:26:00,47.8,42.9,30.30,NNW,341,3.9,5.8,83,0.00,,FEW,0.00,WeatherDisplay:10.37,2013-03-02 10:26:00,
2013-03-02 04:31:00,48.6,42.7,30.30,NNW,341,1.8,3.5,80,0.00,,FEW,0.00,WeatherDisplay:10.37,2013-03-02 10:31:00,
2013-03-02 04:36:00,48.9,42.3,30.30,North,7,0.0,2.3,78,0.00,,FEW,0.00,WeatherDisplay:10.37,2013-03-02 10:36:00,
2013-03-02 04:41:00,48.8,42.6,30.30,NNE,32,0.5,2.3,79,0.00,,FEW,0.00,WeatherDisplay:10.37,2013-03-02 10:41:00,
2013-03-02 04:46:00,48.5,42.3,30.30,North,349,0.1,2.3,79,0.00,,FEW,0.00,WeatherDisplay:10.37,2013-03-02 10:46:00,
2013-03-02 04:51:00,48.3,42.1,30.30,North,349,0.1,2.3,79,0.00,,FEW,0.00,WeatherDisplay:10.37,2013-03-02 10:51:00,
2013-03-02 04:56:00,48.1,41.9,30.31,NNW,339,0.0,0.0,79,0.00,,FEW,0.00,WeatherDisplay:10.37,2013-03-02 10:56:00,
2013-03-02 05:01:00,47.8,41.6,30.31,NW,324,0.0,2.3,79,0.00,,FEW,0.00,WeatherDisplay:10.37,2013-03-02 11:01:00,
2013-03-02 05:06:00,47.5,41.6,30.31,NW,321,0.8,2.3,80,0.00,,FEW,0.00,WeatherDisplay:10.37,2013-03-02 11:06:00,
2013-03-02 05:11:00,47.5,41.3,30.32,NNW,335,0.9,2.3,79,0.00,,FEW,0.00,WeatherDisplay:10.37,2013-03-02 11:11:00,
2013-03-02 05:16:00,47.5,41.0,30.32,NNE,16,1.3,3.5,78,0.00,,FEW,0.00,WeatherDisplay:10.37,2013-03-02 11:16:00,
2013-03-02 05:21:00,47.6,40.7,30.32,ENE,57,2.2,2.3,77,0.00,,FEW,0.00,WeatherDisplay:10.37,2013-03-02 11:21:00,
2013-03-02 05:26:00,47.6,40.4,30.32,North,351,0.5,2.3,76,0.00,,FEW,0.00,WeatherDisplay:10.37,2013-03-02 11:26:00,
2013-03-02 05:31:00,47.5,40.3,30.32,NNW,329,0.4,3.5,76,0.00,,FEW,0.00,WeatherDisplay:10.37,2013-03-02 11:31:00,
2013-03-02 05:36:00,47.4,40.2,30.33,North,5,0.4,2.3,76,0.00,,FEW,0.00,WeatherDisplay:10.37,2013-03-02 11:36:00,
2013-03-02 05:41:00,47.2,39.7,30.33,NE,49,0.0,2.3,75,0.00,,FEW,0.00,WeatherDisplay:10.37,2013-03-02 11:41:00,
2013-03-02 05:46:00,47.2,39.7,30.33,North,11,1.9,3.5,75,0.00,,FEW,0.00,WeatherDisplay:10.37,2013-03-02 11:46:00,
2013-03-02 05:51:00,47.1,39.6,30.33,NE,43,1.6,2.3,75,0.00,,FEW,0.00,WeatherDisplay:10.37,2013-03-02 11:51:00,
2013-03-02 05:56:00,47.2,39.3,30.34,NNE,17,1.7,3.5,74,0.00,,FEW,0.00,WeatherDisplay:10.37,2013-03-02 11:56:00,
2013-03-02 06:01:00,47.1,39.2,30.34,NNW,348,1.7,3.5,74,0.00,,FEW,0.00,WeatherDisplay:10.37,2013-03-02 12:01:00,
2013-03-02 06:06:00,47.0,39.5,30.34,North,349,0.5,2.3,75,0.00,CLR,FEW,0.00,WeatherDisplay:10.37,2013-03-02 12:06:00,
2013-03-02 06:11:00,47.1,39.6,30.35,NNW,346,4.4,8.1,75,0.00,CLR,FEW,0.00,WeatherDisplay:10.37,2013-03-02 12:11:00,
2013-03-02 06:16:00,47.2,39.3,30.35,North,2,0.7,2.3,74,0.00,CLR,FEW,0.00,WeatherDisplay:10.37,2013-03-02 12:16:00,
2013-03-02 06:21:00,47.1,39.2,30.35,NW,322,1.3,3.5,74,0.00,CLR,FEW,0.00,WeatherDisplay:10.37,2013-03-02 12:21:00,
2013-03-02 06:26:00,47.0,39.1,30.35,NE,36,7.7,12.7,74,0.00,CLR,FEW,0.00,WeatherDisplay:10.37,2013-03-02 12:26:00,
2013-03-02 06:31:00,47.1,39.2,30.36,NNW,343,7.6,9.2,74,0.00,CLR,FEW,0.00,WeatherDisplay:10.37,2013-03-02 12:31:00,
2013-03-02 06:36:00,47.3,38.7,30.35,NNE,28,10.2,11.5,72,0.00,CLR,FEW,0.00,WeatherDisplay:10.37,2013-03-02 12:36:00,
2013-03-02 06:41:00,47.4,38.5,30.36,NE,55,7.8,8.1,71,0.00,CLR,FEW,0.00,WeatherDisplay:10.37,2013-03-02 12:41:00,
2013-03-02 06:46:00,47.1,38.5,30.36,NNW,337,9.2,11.5,72,0.00,CLR,FEW,0.00,WeatherDisplay:10.37,2013-03-02 12:46:00,
2013-03-02 06:51:00,47.0,38.1,30.36,NNE,32,2.4,9.2,71,0.00,CLR,FEW,0.00,WeatherDisplay:10.37,2013-03-02 12:51:00,
2013-03-02 06:56:00,46.8,37.9,30.37,NE,52,3.6,3.6,71,0.00,CLR,FEW,0.00,WeatherDisplay:10.37,2013-03-02 12:56:00,
2013-03-02 07:01:00,46.8,37.9,30.37,NE,47,6.1,6.1,71,0.00,CLR,FEW,0.00,WeatherDisplay:10.37,2013-03-02 13:01:00,
2013-03-02 07:06:00,46.9,38.0,30.37,NNE,15,4.8,4.8,71,0.00,CLR,FEW,0.00,WeatherDisplay:10.37,2013-03-02 13:06:00,
2013-03-02 07:11:00,46.8,37.9,30.38,NNE,21,7.9,9.2,71,0.00,CLR,FEW,0.00,WeatherDisplay:10.37,2013-03-02 13:11:00,
2013-03-02 07:16:00,46.9,38.0,30.38,North,2,7.3,8.1,71,0.00,CLR,FEW,0.00,WeatherDisplay:10.37,2013-03-02 13:16:00,
2013-03-02 07:21:00,47.0,37.7,30.38,NNE,13,3.0,3.5,70,0.00,CLR,FEW,0.00,WeatherDisplay:10.37,2013-03-02 13:21:00,
2013-03-02 07:26:00,47.1,37.8,30.39,NNW,343,7.6,8.1,70,0.00,CLR,FEW,0.00,WeatherDisplay:10.37,2013-03-02 13:26:00,
2013-03-02 07:31:00,47.3,37.6,30.39,NE,36,5.3,8.1,69,0.00,CLR,FEW,0.00,WeatherDisplay:10.37,2013-03-02 13:31:00,
2013-03-02 07:36:00,47.5,37.8,30.39,NE,50,5.3,5.8,69,0.00,CLR,FEW,0.00,WeatherDisplay:10.37,2013-03-02 13:36:00,
2013-03-02 07:41:00,47.8,37.7,30.39,NE,46,0.9,5.8,68,0.00,CLR,FEW,0.00,WeatherDisplay:10.37,2013-03-02 13:41:00,
2013-03-02 07:46:00,48.3,38.2,30.40,NNE,24,6.3,9.2,68,0.00,CLR,FEW,0.00,WeatherDisplay:10.37,2013-03-02 13:46:00,
2013-03-02 07:51:00,48.7,38.2,30.40,NNE,26,0.3,2.3,67,0.00,CLR,FEW,0.00,WeatherDisplay:10.37,2013-03-02 13:51:00,
2013-03-02 07:56:00,49.2,38.3,30.40,NNE,26,2.1,3.5,66,0.00,CLR,FEW,0.00,WeatherDisplay:10.37,2013-03-02 13:56:00,
2013-03-02 08:01:00,49.6,38.7,30.40,North,350,1.2,5.8,66,0.00,CLR,FEW,0.00,WeatherDisplay:10.37,2013-03-02 14:01:00,
2013-03-02 08:06:00,49.9,38.6,30.40,NE,43,6.5,6.5,65,0.00,CLR,FEW,0.00,WeatherDisplay:10.37,2013-03-02 14:06:00,
2013-03-02 08:11:00,50.2,38.5,30.41,NE,53,10.8,10.8,64,0.00,CLR,FEW,0.00,WeatherDisplay:10.37,2013-03-02 14:11:00,
2013-03-02 08:16:00,50.3,38.2,30.42,North,359,11.0,11.0,63,0.00,CLR,FEW,0.00,WeatherDisplay:10.37,2013-03-02 14:16:00,
2013-03-02 08:21:00,50.5,38.4,30.42,NE,56,15.6,15.6,63,0.00,CLR,FEW,0.00,WeatherDisplay:10.37,2013-03-02 14:21:00,
2013-03-02 08:26:00,50.8,38.2,30.42,NE,46,6.6,17.3,62,0.00,CLR,FEW,0.00,WeatherDisplay:10.37,2013-03-02 14:26:00,
2013-03-02 08:31:00,51.0,38.0,30.42,NNW,335,10.4,10.4,61,0.00,CLR,FEW,0.00,WeatherDisplay:10.37,2013-03-02 14:31:00,
2013-03-02 08:36:00,51.1,37.7,30.42,North,355,11.4,17.3,60,0.00,CLR,FEW,0.00,WeatherDisplay:10.37,2013-03-02 14:36:00,
2013-03-02 08:41:00,51.4,38.0,30.42,NE,43,13.1,15.0,60,0.00,CLR,FEW,0.00,WeatherDisplay:10.37,2013-03-02 14:41:00,
2013-03-02 08:46:00,51.4,37.5,30.42,NNW,348,17.6,17.6,59,0.00,CLR,FEW,0.00,WeatherDisplay:10.37,2013-03-02 14:46:00,
2013-03-02 08:51:00,51.8,38.3,30.43,NNW,345,6.1,8.1,60,0.00,CLR,FEW,0.00,WeatherDisplay:10.37,2013-03-02 14:51:00,
2013-03-02 08:56:00,51.8,37.9,30.43,ENE,73,7.4,11.5,59,0.00,CLR,FEW,0.00,WeatherDisplay:10.37,2013-03-02 14:56:00,
2013-03-02 09:01:00,52.1,38.2,30.43,North,357,12.0,12.7,59,0.00,CLR,FEW,0.00,WeatherDisplay:10.37,2013-03-02 15:01:00,
2013-03-02 09:06:00,52.3,37.5,30.43,NNW,341,11.3,11.5,57,0.00,CLR,FEW,0.00,WeatherDisplay:10.37,2013-03-02 15:06:00,
2013-03-02 09:11:00,52.2,37.4,30.43,NE,50,12.9,12.9,57,0.00,CLR,FEW,0.00,WeatherDisplay:10.37,2013-03-02 15:11:00,
2013-03-02 09:16:00,52.4,37.2,30.43,NNW,348,11.7,12.7,56,0.00,CLR,FEW,0.00,WeatherDisplay:10.37,2013-03-02 15:16:00,
2013-03-02 09:21:00,52.7,36.5,30.43,North,359,15.6,15.6,54,0.00,CLR,FEW,0.00,WeatherDisplay:10.37,2013-03-02 15:21:00,
2013-03-02 09:26:00,53.0,37.3,30.43,North,359,4.0,4.0,55,0.00,CLR,FEW,0.00,WeatherDisplay:10.37,2013-03-02 15:26:00,
2013-03-02 09:31:00,53.3,36.6,30.43,North,352,11.9,11.9,53,0.00,CLR,FEW,0.00,WeatherDisplay:10.37,2013-03-02 15:31:00,
2013-03-02 09:36:00,53.5,36.3,30.43,NNE,31,9.2,9.2,52,0.00,CLR,FEW,0.00,WeatherDisplay:10.37,2013-03-02 15:36:00,
2013-03-02 09:41:00,53.7,36.0,30.43,NE,54,8.3,9.2,51,0.00,CLR,FEW,0.00,WeatherDisplay:10.37,2013-03-02 15:41:00,
2013-03-02 09:46:00,53.8,35.6,30.43,NNW,339,12.4,12.4,50,0.00,CLR,FEW,0.00,WeatherDisplay:10.37,2013-03-02 15:46:00,
2013-03-02 09:51:00,54.2,36.9,30.43,ENE,78,7.4,8.1,52,0.00,CLR,FEW,0.00,WeatherDisplay:10.37,2013-03-02 15:51:00,
2013-03-02 09:56:00,54.2,35.9,30.43,NNW,348,8.6,12.7,50,0.00,CLR,FEW,0.00,WeatherDisplay:10.37,2013-03-02 15:56:00,
2013-03-02 10:01:00,54.4,36.1,30.43,NNE,24,8.3,8.3,50,0.00,CLR,FEW,0.00,WeatherDisplay:10.37,2013-03-02 16:01:00,
2013-03-02 10:06:00,54.7,35.4,30.43,NNE,28,10.4,10.4,48,0.00,CLR,FEW,0.00,WeatherDisplay:10.37,2013-03-02 16:06:00,
2013-03-02 10:11:00,54.7,34.3,30.43,NE,39,12.0,12.7,46,0.00,CLR,FEW,0.00,WeatherDisplay:10.37,2013-03-02 16:11:00,
2013-03-02 10:16:00,54.9,35.6,30.43,NNW,345,10.0,10.0,48,0.00,CLR,FEW,0.00,WeatherDisplay:10.37,2013-03-02 16:16:00,
2013-03-02 10:21:00,55.4,35.5,30.43,NE,36,9.6,9.6,47,0.00,CLR,FEW,0.00,WeatherDisplay:10.37,2013-03-02 16:21:00,
2013-03-02 10:26:00,55.3,35.4,30.42,NNW,341,12.0,12.0,47,0.00,CLR,FEW,0.00,WeatherDisplay:10.37,2013-03-02 16:26:00,
2013-03-02 10:31:00,55.4,35.5,30.43,NE,52,12.8,12.8,47,0.00,CLR,FEW,0.00,WeatherDisplay:10.37,2013-03-02 16:31:00,
2013-03-02 10:36:00,55.9,35.9,30.43,NE,45,14.0,14.0,47,0.00,CLR,FEW,0.00,WeatherDisplay:10.37,2013-03-02 16:36:00,
2013-03-02 10:41:00,55.8,35.9,30.42,North,356,8.7,17.3,47,0.00,CLR,FEW,0.00,WeatherDisplay:10.37,2013-03-02 16:41:00,
2013-03-02 10:46:00,56.1,35.6,30.42,NNE,24,8.3,11.5,46,0.00,CLR,FEW,0.00,WeatherDisplay:10.37,2013-03-02 16:46:00,
2013-03-02 10:51:00,56.4,35.3,30.42,North,357,7.5,9.2,45,0.00,CLR,FEW,0.00,WeatherDisplay:10.37,2013-03-02 16:51:00,
2013-03-02 10:56:00,56.4,33.6,30.42,NNE,21,11.7,15.0,42,0.00,CLR,FEW,0.00,WeatherDisplay:10.37,2013-03-02 16:56:00,
2013-03-02 11:01:00,56.8,35.1,30.42,NNW,341,6.8,9.2,44,0.00,CLR,FEW,0.00,WeatherDisplay:10.37,2013-03-02 17:01:00,
2013-03-02 11:06:00,57.7,34.1,30.42,NNE,20,10.1,10.1,41,0.00,,FEW,0.00,WeatherDisplay:10.37,2013-03-02 17:06:00,
2013-03-02 11:11:00,57.7,34.7,30.42,NNE,25,7.5,9.2,42,0.00,,FEW,0.00,WeatherDisplay:10.37,2013-03-02 17:11:00,
2013-03-02 11:16:00,58.0,33.8,30.42,ENE,64,11.1,11.1,40,0.00,,FEW,0.00,WeatherDisplay:10.37,2013-03-02 17:16:00,
2013-03-02 11:21:00,58.0,33.8,30.42,North,353,9.0,11.5,40,0.00,,FEW,0.00,WeatherDisplay:10.37,2013-03-02 17:21:00,
2013-03-02 11:26:00,58.1,32.6,30.42,North,357,10.3,10.3,38,0.00,,FEW,0.00,WeatherDisplay:10.37,2013-03-02 17:26:00,
2013-03-02 11:31:00,58.5,34.2,30.42,NW,320,8.6,9.4,40,0.00,,FEW,0.00,WeatherDisplay:10.37,2013-03-02 17:31:00,
2013-03-02 11:36:00,58.9,32.0,30.42,NNW,345,11.6,11.6,36,0.00,,FEW,0.00,WeatherDisplay:10.37,2013-03-02 17:36:00,
2013-03-02 11:41:00,58.8,32.6,30.41,NNW,329,9.4,9.4,37,0.00,,FEW,0.00,WeatherDisplay:10.37,2013-03-02 17:41:00,
2013-03-02 11:46:00,58.9,33.3,30.41,NNW,335,8.8,8.8,38,0.00,,FEW,0.00,WeatherDisplay:10.37,2013-03-02 17:46:00,
2013-03-02 11:51:00,59.3,33.0,30.42,NW,321,9.4,9.4,37,0.00,,FEW,0.00,WeatherDisplay:10.37,2013-03-02 17:51:00,
2013-03-02 11:56:00,59.6,32.6,30.41,NE,36,4.4,4.4,36,0.00,,FEW,0.00,WeatherDisplay:10.37,2013-03-02 17:56:00,
2013-03-02 12:01:00,59.9,31.4,30.41,NNW,331,11.7,11.7,34,0.00,,FEW,0.00,WeatherDisplay:10.37,2013-03-02 18:01:00,
2013-03-02 12:06:00,60.1,30.9,30.41,North,5,12.9,12.9,33,0.00,,FEW,0.00,WeatherDisplay:10.37,2013-03-02 18:06:00,
2013-03-02 12:11:00,59.9,31.4,30.40,NE,35,13.5,13.5,34,0.00,,FEW,0.00,WeatherDisplay:10.37,2013-03-02 18:11:00,
2013-03-02 12:16:00,60.1,30.9,30.40,NNW,341,8.5,11.3,33,0.00,,FEW,0.00,WeatherDisplay:10.37,2013-03-02 18:16:00,
2013-03-02 12:21:00,60.3,30.3,30.40,NE,45,7.6,13.2,32,0.00,,FEW,0.00,WeatherDisplay:10.37,2013-03-02 18:21:00,
2013-03-02 12:26:00,60.7,30.6,30.39,NNW,346,6.1,8.1,32,0.00,,FEW,0.00,WeatherDisplay:10.37,2013-03-02 18:26:00,
2013-03-02 12:31:00,61.2,31.1,30.39,NE,50,6.3,6.3,32,0.00,,FEW,0.00,WeatherDisplay:10.37,2013-03-02 18:31:00,
2013-03-02 12:36:00,61.6,30.6,30.39,NNE,33,8.1,9.4,31,0.00,,FEW,0.00,WeatherDisplay:10.37,2013-03-02 18:36:00,
2013-03-02 12:41:00,61.5,30.6,30.38,NNW,342,10.6,11.5,31,0.00,,FEW,0.00,WeatherDisplay:10.37,2013-03-02 18:41:00,
2013-03-02 12:46:00,61.8,31.6,30.38,North,357,8.8,8.8,32,0.00,,FEW,0.00,WeatherDisplay:10.37,2013-03-02 18:46:00,
2013-03-02 12:51:00,62.0,31.0,30.38,NNW,341,8.1,8.1,31,0.00,,FEW,0.00,WeatherDisplay:10.37,2013-03-02 18:51:00,
2013-03-02 12:56:00,61.9,29.3,30.38,NNW,331,12.5,12.7,29,0.00,,FEW,0.00,WeatherDisplay:10.37,2013-03-02 18:56:00,
2013-03-02 13:01:00,62.2,30.4,30.37,NW,304,6.9,6.9,30,0.00,,FEW,0.00,WeatherDisplay:10.37,2013-03-02 19:01:00,
2013-03-02 13:06:00,62.6,29.9,30.37,East,81,6.9,12.7,29,0.00,,FEW,0.00,WeatherDisplay:10.37,2013-03-02 19:06:00,
2013-03-02 13:11:00,62.7,30.0,30.37,NNW,346,11.2,11.5,29,0.00,,FEW,0.00,WeatherDisplay:10.37,2013-03-02 19:11:00,
2013-03-02 13:16:00,62.5,28.9,30.36,North,1,14.2,14.2,28,0.00,,FEW,0.00,WeatherDisplay:10.37,2013-03-02 19:16:00,
2013-03-02 13:21:00,62.6,29.9,30.36,NNW,329,10.0,10.0,29,0.00,,FEW,0.00,WeatherDisplay:10.37,2013-03-02 19:21:00,
2013-03-02 13:26:00,62.9,30.1,30.35,North,356,7.5,8.1,29,0.00,,FEW,0.00,WeatherDisplay:10.37,2013-03-02 19:26:00,
2013-03-02 13:31:00,63.3,29.6,30.35,ESE,119,5.0,8.1,28,0.00,,FEW,0.00,WeatherDisplay:10.37,2013-03-02 19:31:00,
2013-03-02 13:36:00,63.5,29.8,30.35,NNW,334,13.7,13.7,28,0.00,,FEW,0.00,WeatherDisplay:10.37,2013-03-02 19:36:00,
2013-03-02 13:41:00,63.3,29.6,30.35,North,5,10.3,10.3,28,0.00,,FEW,0.00,WeatherDisplay:10.37,2013-03-02 19:41:00,
2013-03-02 13:46:00,63.1,29.4,30.34,NNE,17,12.4,12.4,28,0.00,,FEW,0.00,WeatherDisplay:10.37,2013-03-02 19:46:00,
2013-03-02 13:51:00,62.9,29.3,30.34,NE,54,9.8,9.8,28,0.00,,FEW,0.00,WeatherDisplay:10.37,2013-03-02 19:51:00,
2013-03-02 13:56:00,63.1,30.3,30.34,NW,320,7.7,9.4,29,0.00,,FEW,0.00,WeatherDisplay:10.37,2013-03-02 19:56:00,
2013-03-02 14:01:00,63.4,29.7,30.33,NW,311,10.3,10.3,28,0.00,,FEW,0.00,WeatherDisplay:10.37,2013-03-02 20:01:00,
2013-03-02 14:06:00,63.5,29.8,30.33,North,5,12.3,12.3,28,0.00,,FEW,0.00,WeatherDisplay:10.37,2013-03-02 20:06:00,
2013-03-02 14:11:00,63.6,29.0,30.33,NW,317,8.8,8.8,27,0.00,,FEW,0.00,WeatherDisplay:10.37,2013-03-02 20:11:00,
2013-03-02 14:16:00,63.9,29.2,30.33,NE,34,13.7,13.7,27,0.00,,FEW,0.00,WeatherDisplay:10.37,2013-03-02 20:16:00,
2013-03-02 14:21:00,64.0,28.4,30.32,NW,324,11.4,12.7,26,0.00,,FEW,0.00,WeatherDisplay:10.37,2013-03-02 20:21:00,
2013-03-02 14:26:00,64.4,31.4,30.32,NNW,336,7.5,8.1,29,0.00,,FEW,0.00,WeatherDisplay:10.37,2013-03-02 20:26:00,
2013-03-02 14:31:00,64.8,29.1,30.32,North,1,12.6,12.6,26,0.00,,FEW,0.00,WeatherDisplay:10.37,2013-03-02 20:31:00,
2013-03-02 14:36:00,64.6,28.9,30.31,NNW,348,11.9,11.9,26,0.00,,FEW,0.00,WeatherDisplay:10.37,2013-03-02 20:36:00,
2013-03-02 14:41:00,64.3,27.7,30.32,NNW,345,13.6,13.6,25,0.00,,FEW,0.00,WeatherDisplay:10.37,2013-03-02 20:41:00,
2013-03-02 14:46:00,63.9,28.3,30.31,NW,315,14.8,14.8,26,0.00,,FEW,0.00,WeatherDisplay:10.37,2013-03-02 20:46:00,
2013-03-02 14:51:00,64.4,29.7,30.31,NE,42,8.3,8.3,27,0.00,,FEW,0.00,WeatherDisplay:10.37,2013-03-02 20:51:00,
2013-03-02 14:56:00,64.3,27.7,30.31,NNW,336,10.4,10.4,25,0.00,,FEW,0.00,WeatherDisplay:10.37,2013-03-02 20:56:00,
2013-03-02 15:01:00,64.2,28.6,30.31,NNW,348,18.3,18.3,26,0.00,,FEW,0.00,WeatherDisplay:10.37,2013-03-02 21:01:00,
2013-03-02 15:06:00,64.4,28.7,30.31,NW,320,10.0,10.0,26,0.00,,FEW,0.00,WeatherDisplay:10.37,2013-03-02 21:06:00,
2013-03-02 15:11:00,64.4,27.8,30.30,NW,322,13.4,13.4,25,0.00,,FEW,0.00,WeatherDisplay:10.37,2013-03-02 21:11:00,
2013-03-02 15:16:00,65.0,30.2,30.30,NNW,335,7.7,7.7,27,0.00,,FEW,0.00,WeatherDisplay:10.37,2013-03-02 21:16:00,
2013-03-02 15:21:00,65.3,28.5,30.30,NNE,12,5.5,12.7,25,0.00,,FEW,0.00,WeatherDisplay:10.37,2013-03-02 21:21:00,
2013-03-02 15:26:00,65.5,29.7,30.30,NNW,341,5.7,8.1,26,0.00,,FEW,0.00,WeatherDisplay:10.37,2013-03-02 21:26:00,
2013-03-02 15:31:00,65.2,28.5,30.30,North,360,10.2,11.5,25,0.00,,FEW,0.00,WeatherDisplay:10.37,2013-03-02 21:31:00,
2013-03-02 15:36:00,65.2,28.5,30.30,WSW,251,5.7,11.5,25,0.00,,FEW,0.00,WeatherDisplay:10.37,2013-03-02 21:36:00,
2013-03-02 15:41:00,65.2,29.4,30.29,NW,316,8.2,8.2,26,0.00,,FEW,0.00,WeatherDisplay:10.37,2013-03-02 21:41:00,
2013-03-02 15:46:00,65.2,29.4,30.29,NNW,346,5.9,8.1,26,0.00,,FEW,0.00,WeatherDisplay:10.37,2013-03-02 21:46:00,
2013-03-02 15:51:00,65.4,29.6,30.29,NNW,345,11.6,15.0,26,0.00,,FEW,0.00,WeatherDisplay:10.37,2013-03-02 21:51:00,
2013-03-02 15:56:00,65.5,29.7,30.29,ENE,60,7.6,7.6,26,0.00,,FEW,0.00,WeatherDisplay:10.37,2013-03-02 21:56:00,
2013-03-02 16:01:00,65.5,29.7,30.29,North,352,8.1,8.1,26,0.00,,FEW,0.00,WeatherDisplay:10.37,2013-03-02 22:01:00,
2013-03-02 16:06:00,65.6,29.8,30.29,NNW,343,6.7,9.2,26,0.00,,FEW,0.00,WeatherDisplay:10.37,2013-03-02 22:06:00,
2013-03-02 16:11:00,65.8,29.9,30.29,North,9,8.7,9.2,26,0.00,,FEW,0.00,WeatherDisplay:10.37,2013-03-02 22:11:00,
2013-03-02 16:16:00,65.9,30.0,30.29,NNW,348,2.8,3.5,26,0.00,,FEW,0.00,WeatherDisplay:10.37,2013-03-02 22:16:00,
2013-03-02 16:21:00,65.8,29.9,30.28,ENE,69,1.0,2.3,26,0.00,,FEW,0.00,WeatherDisplay:10.37,2013-03-02 22:21:00,
2013-03-02 16:26:00,65.8,29.9,30.28,NNW,329,4.5,5.8,26,0.00,,FEW,0.00,WeatherDisplay:10.37,2013-03-02 22:26:00,
2013-03-02 16:31:00,65.6,29.8,30.28,North,360,7.3,9.2,26,0.00,,FEW,0.00,WeatherDisplay:10.37,2013-03-02 22:31:00,
2013-03-02 16:36:00,65.6,30.7,30.28,NE,40,4.5,5.8,27,0.00,,FEW,0.00,WeatherDisplay:10.37,2013-03-02 22:36:00,
2013-03-02 16:41:00,65.7,29.8,30.28,ENE,59,9.2,9.2,26,0.00,,FEW,0.00,WeatherDisplay:10.37,2013-03-02 22:41:00,
2013-03-02 16:46:00,65.5,31.5,30.28,NNE,21,2.8,3.5,28,0.00,,FEW,0.00,WeatherDisplay:10.37,2013-03-02 22:46:00,
2013-03-02 16:51:00,65.5,30.6,30.28,NNW,338,5.5,5.8,27,0.00,,FEW,0.00,WeatherDisplay:10.37,2013-03-02 22:51:00,
2013-03-02 16:56:00,65.6,30.7,30.28,NNW,347,8.9,9.2,27,0.00,,FEW,0.00,WeatherDisplay:10.37,2013-03-02 22:56:00,
2013-03-02 17:01:00,65.7,30.8,30.28,NE,53,10.5,12.7,27,0.00,,FEW,0.00,WeatherDisplay:10.37,2013-03-02 23:01:00,
2013-03-02 17:06:00,65.3,30.4,30.28,NE,49,2.8,11.5,27,0.00,,FEW,0.00,WeatherDisplay:10.37,2013-03-02 23:06:00,
2013-03-02 17:11:00,65.2,32.1,30.28,NNW,337,4.3,8.1,29,0.00,,FEW,0.00,WeatherDisplay:10.37,2013-03-02 23:11:00,
2013-03-02 17:16:00,65.4,31.4,30.28,North,356,3.6,12.7,28,0.00,,FEW,0.00,WeatherDisplay:10.37,2013-03-02 23:16:00,
2013-03-02 17:21:00,65.0,31.9,30.28,North,353,1.2,5.8,29,0.00,,FEW,0.00,WeatherDisplay:10.37,2013-03-02 23:21:00,
2013-03-02 17:26:00,64.8,30.9,30.28,NNE,12,7.6,7.6,28,0.00,,FEW,0.00,WeatherDisplay:10.37,2013-03-02 23:26:00,
2013-03-02 17:31:00,64.6,31.6,30.28,North,353,1.8,3.5,29,0.00,,FEW,0.00,WeatherDisplay:10.37,2013-03-02 23:31:00,
2013-03-02 17:36:00,64.4,31.4,30.28,ENE,58,1.7,3.8,29,0.00,,FEW,0.00,WeatherDisplay:10.37,2013-03-02 23:36:00,
2013-03-02 17:41:00,64.2,32.1,30.28,East,90,0.8,3.5,30,0.00,,FEW,0.00,WeatherDisplay:10.37,2013-03-02 23:41:00,
2013-03-02 17:46:00,64.1,32.0,30.28,North,9,1.9,3.5,30,0.00,,FEW,0.00,WeatherDisplay:10.37,2013-03-02 23:46:00,
2013-03-02 17:51:00,63.8,31.7,30.28,NNE,21,5.0,7.5,30,0.00,,FEW,0.00,WeatherDisplay:10.37,2013-03-02 23:51:00,
2013-03-02 17:56:00,63.5,32.3,30.29,NNE,16,0.8,2.3,31,0.00,,FEW,0.00,WeatherDisplay:10.37,2013-03-02 23:56:00,
2013-03-02 18:01:00,63.2,32.8,30.29,North,356,1.3,3.5,32,0.00,,FEW,0.00,WeatherDisplay:10.37,2013-03-03 00:01:00,
2013-03-02 18:06:00,62.7,32.4,30.29,NE,52,0.0,3.5,32,0.00,,FEW,0.00,WeatherDisplay:10.37,2013-03-03 00:06:00,
2013-03-02 18:11:00,62.1,31.9,30.29,NE,45,0.8,5.8,32,0.00,,FEW,0.00,WeatherDisplay:10.37,2013-03-03 00:11:00,
2013-03-02 18:16:00,61.5,32.1,30.30,NE,45,0.0,0.0,33,0.00,,FEW,0.00,WeatherDisplay:10.37,2013-03-03 00:16:00,
2013-03-02 18:21:00,60.8,31.5,30.29,NE,38,0.1,0.0,33,0.00,,FEW,0.00,WeatherDisplay:10.37,2013-03-03 00:21:00,
2013-03-02 18:26:00,60.1,30.9,30.29,NNE,12,0.7,2.3,33,0.00,,FEW,0.00,WeatherDisplay:10.37,2013-03-03 00:26:00,
2013-03-02 18:31:00,59.5,31.1,30.29,NE,47,0.1,2.3,34,0.00,,FEW,0.00,WeatherDisplay:10.37,2013-03-03 00:31:00,
2013-03-02 18:36:00,58.7,31.1,30.29,ENE,73,0.0,0.0,35,0.00,,FEW,0.00,WeatherDisplay:10.37,2013-03-03 00:36:00,
2013-03-02 18:41:00,58.1,31.3,30.29,ENE,73,0.0,0.0,36,0.00,,FEW,0.00,WeatherDisplay:10.37,2013-03-03 00:41:00,
2013-03-02 18:46:00,57.4,31.3,30.29,ENE,73,0.0,0.0,37,0.00,,FEW,0.00,WeatherDisplay:10.37,2013-03-03 00:46:00,
2013-03-02 18:51:00,56.7,32.0,30.30,ENE,73,0.1,0.0,39,0.00,,FEW,0.00,WeatherDisplay:10.37,2013-03-03 00:51:00,
2013-03-02 18:56:00,56.0,32.0,30.30,ENE,73,0.0,0.0,40,0.00,,FEW,0.00,WeatherDisplay:10.37,2013-03-03 00:56:00,
2013-03-02 19:01:00,55.4,32.1,30.30,ENE,73,0.0,0.0,41,0.00,,FEW,0.00,WeatherDisplay:10.37,2013-03-03 01:01:00,
2013-03-02 19:06:00,54.9,32.2,30.30,ENE,73,0.0,0.0,42,0.00,,FEW,0.00,WeatherDisplay:10.37,2013-03-03 01:06:00,
2013-03-02 19:11:00,54.7,32.0,30.30,ENE,73,0.0,0.0,42,0.00,,FEW,0.00,WeatherDisplay:10.37,2013-03-03 01:11:00,
2013-03-02 19:16:00,54.6,31.9,30.30,ENE,71,0.0,0.0,42,0.00,,FEW,0.00,WeatherDisplay:10.37,2013-03-03 01:16:00,
2013-03-02 19:21:00,54.3,31.7,30.30,ENE,71,0.0,0.0,42,0.00,,FEW,0.00,WeatherDisplay:10.37,2013-03-03 01:21:00,
2013-03-02 19:26:00,53.9,31.3,30.30,ENE,71,0.0,0.0,42,0.00,,FEW,0.00,WeatherDisplay:10.37,2013-03-03 01:26:00,
2013-03-02 19:31:00,53.6,31.0,30.30,ENE,71,0.5,2.3,42,0.00,,FEW,0.00,WeatherDisplay:10.37,2013-03-03 01:31:00,
2013-03-02 19:36:00,53.4,30.9,30.30,ENE,71,0.4,2.3,42,0.00,,FEW,0.00,WeatherDisplay:10.37,2013-03-03 01:36:00,
2013-03-02 19:41:00,53.2,30.7,30.30,ENE,71,0.0,0.0,42,0.00,,FEW,0.00,WeatherDisplay:10.37,2013-03-03 01:41:00,
2013-03-02 19:46:00,53.0,30.5,30.31,ENE,71,0.0,0.0,42,0.00,,FEW,0.00,WeatherDisplay:10.37,2013-03-03 01:46:00,
2013-03-02 19:51:00,52.8,30.3,30.31,ENE,71,0.0,0.0,42,0.00,,FEW,0.00,WeatherDisplay:10.37,2013-03-03 01:51:00,
2013-03-02 19:56:00,52.7,30.2,30.31,ENE,71,0.0,0.0,42,0.00,,FEW,0.00,WeatherDisplay:10.37,2013-03-03 01:56:00,
2013-03-02 20:01:00,52.7,30.2,30.31,ENE,71,0.0,0.0,42,0.00,,FEW,0.00,WeatherDisplay:10.37,2013-03-03 02:01:00,
2013-03-02 20:06:00,52.5,30.0,30.31,ENE,71,0.0,0.0,42,0.00,,FEW,0.00,WeatherDisplay:10.37,2013-03-03 02:06:00,
2013-03-02 20:11:00,52.3,29.9,30.31,ENE,71,0.3,2.3,42,0.00,,FEW,0.00,WeatherDisplay:10.37,2013-03-03 02:11:00,
2013-03-02 20:16:00,52.1,29.7,30.31,ENE,71,0.3,0.0,42,0.00,,FEW,0.00,WeatherDisplay:10.37,2013-03-03 02:16:00,
2013-03-02 20:21:00,51.8,30.0,30.31,ENE,71,0.0,0.0,43,0.00,,FEW,0.00,WeatherDisplay:10.37,2013-03-03 02:21:00,
2013-03-02 20:26:00,51.5,29.7,30.31,ENE,71,0.0,0.0,43,0.00,,FEW,0.00,WeatherDisplay:10.37,2013-03-03 02:26:00,
2013-03-02 20:31:00,51.2,30.0,30.31,ENE,71,0.0,0.0,44,0.00,,FEW,0.00,WeatherDisplay:10.37,2013-03-03 02:31:00,
2013-03-02 20:36:00,51.2,31.1,30.31,ENE,71,0.0,0.0,46,0.00,,FEW,0.00,WeatherDisplay:10.37,2013-03-03 02:36:00,
2013-03-02 20:41:00,51.5,33.0,30.31,ENE,71,0.0,0.0,49,0.00,,FEW,0.00,WeatherDisplay:10.37,2013-03-03 02:41:00,
2013-03-02 20:46:00,51.4,33.4,30.31,ENE,71,0.0,0.0,50,0.00,,FEW,0.00,WeatherDisplay:10.37,2013-03-03 02:46:00,
2013-03-02 20:51:00,51.4,34.3,30.32,ESE,107,0.0,0.0,52,0.00,,FEW,0.00,WeatherDisplay:10.37,2013-03-03 02:51:00,
2013-03-02 20:56:00,51.5,35.4,30.31,ESE,117,0.0,1.1,54,0.00,,FEW,0.00,WeatherDisplay:10.37,2013-03-03 02:56:00,
2013-03-02 21:01:00,51.9,36.7,30.32,ESE,113,0.0,0.0,56,0.00,,FEW,0.00,WeatherDisplay:10.37,2013-03-03 03:01:00,
2013-03-02 21:06:00,52.1,37.3,30.32,ESE,113,0.0,1.1,57,0.00,,FEW,0.00,WeatherDisplay:10.37,2013-03-03 03:06:00,
2013-03-02 21:11:00,52.0,37.2,30.32,ESE,112,0.2,1.1,57,0.00,,FEW,0.00,WeatherDisplay:10.37,2013-03-03 03:11:00,
2013-03-02 21:16:00,51.9,37.6,30.32,East,96,0.1,0.0,58,0.00,,FEW,0.00,WeatherDisplay:10.37,2013-03-03 03:16:00,
2013-03-02 21:21:00,51.6,37.3,30.32,East,93,0.3,1.1,58,0.00,,FEW,0.00,WeatherDisplay:10.37,2013-03-03 03:21:00,
2013-03-02 21:26:00,51.3,37.4,30.32,East,93,0.0,1.1,59,0.00,,FEW,0.00,WeatherDisplay:10.37,2013-03-03 03:26:00,
2013-03-02 21:31:00,51.4,38.0,30.32,ESE,110,1.1,3.5,60,0.00,,FEW,0.00,WeatherDisplay:10.37,2013-03-03 03:31:00,
2013-03-02 21:36:00,51.9,38.0,30.32,ESE,113,0.0,3.5,59,0.00,,FEW,0.00,WeatherDisplay:10.37,2013-03-03 03:36:00,
2013-03-02 21:41:00,52.1,37.3,30.33,ESE,109,0.1,1.1,57,0.00,,FEW,0.00,WeatherDisplay:10.37,2013-03-03 03:41:00,
2013-03-02 21:46:00,52.0,36.8,30.33,ESE,109,0.0,1.1,56,0.00,,FEW,0.00,WeatherDisplay:10.37,2013-03-03 03:46:00,
2013-03-02 21:51:00,51.8,36.6,30.33,ESE,109,0.0,1.1,56,0.00,,FEW,0.00,WeatherDisplay:10.37,2013-03-03 03:51:00,
2013-03-02 21:56:00,51.6,37.3,30.33,ESE,109,0.0,0.0,58,0.00,,FEW,0.00,WeatherDisplay:10.37,2013-03-03 03:56:00,
2013-03-02 22:01:00,51.6,37.7,30.33,East,99,0.0,1.1,59,0.00,,FEW,0.00,WeatherDisplay:10.37,2013-03-03 04:01:00,
2013-03-02 22:06:00,51.6,38.6,30.33,East,99,0.0,0.0,61,0.00,,FEW,0.00,WeatherDisplay:10.37,2013-03-03 04:06:00,
2013-03-02 22:11:00,51.4,38.8,30.33,East,99,0.0,0.0,62,0.00,,FEW,0.00,WeatherDisplay:10.37,2013-03-03 04:11:00,
2013-03-02 22:16:00,51.3,39.5,30.33,East,99,0.0,1.1,64,0.00,,FEW,0.00,WeatherDisplay:10.37,2013-03-03 04:16:00,
2013-03-02 22:21:00,51.0,39.6,30.32,East,99,0.0,0.0,65,0.00,,FEW,0.00,WeatherDisplay:10.37,2013-03-03 04:21:00,
2013-03-02 22:26:00,50.8,39.8,30.32,East,99,0.0,1.1,66,0.00,,FEW,0.00,WeatherDisplay:10.37,2013-03-03 04:26:00,
2013-03-02 22:31:00,50.6,40.0,30.32,East,99,0.0,0.0,67,0.00,,FEW,0.00,WeatherDisplay:10.37,2013-03-03 04:31:00,
2013-03-02 22:36:00,50.3,40.1,30.32,East,99,0.0,0.0,68,0.00,,FEW,0.00,WeatherDisplay:10.37,2013-03-03 04:36:00,
2013-03-02 22:41:00,50.1,40.3,30.32,East,99,0.0,0.0,69,0.00,,FEW,0.00,WeatherDisplay:10.37,2013-03-03 04:41:00,
2013-03-02 22:46:00,50.1,40.3,30.32,East,99,0.0,0.0,69,0.00,,FEW,0.00,WeatherDisplay:10.37,2013-03-03 04:46:00,
2013-03-02 22:51:00,49.9,40.1,30.32,East,99,0.0,0.0,69,0.00,,FEW,0.00,WeatherDisplay:10.37,2013-03-03 04:51:00,
2013-03-02 22:56:00,49.7,39.9,30.32,East,99,0.0,0.0,69,0.00,,FEW,0.00,WeatherDisplay:10.37,2013-03-03 04:56:00,
2013-03-02 23:00:00,49.6,39.5,30.31,East,99,0.0,0.0,68,0.00,,FEW,0.00,WeatherDisplay:10.37,2013-03-03 05:00:00,
2013-03-02 23:05:00,49.4,39.3,30.31,East,99,0.0,0.0,68,0.00,,FEW,0.00,WeatherDisplay:10.37,2013-03-03 05:05:00,
2013-03-02 23:10:00,49.2,39.5,30.31,East,99,0.0,0.0,69,0.00,,FEW,0.00,WeatherDisplay:10.37,2013-03-03 05:10:00,
2013-03-02 23:15:00,49.2,39.5,30.31,East,99,0.0,0.0,69,0.00,,FEW,0.00,WeatherDisplay:10.37,2013-03-03 05:15:00,
2013-03-02 23:20:00,49.2,39.5,30.31,East,99,0.1,1.1,69,0.00,,FEW,0.00,WeatherDisplay:10.37,2013-03-03 05:20:00,
2013-03-02 23:25:00,49.1,39.4,30.31,East,99,0.0,1.1,69,0.00,,FEW,0.00,WeatherDisplay:10.37,2013-03-03 05:25:00,
2013-03-02 23:30:00,49.0,39.6,30.31,East,99,0.0,0.0,70,0.00,,FEW,0.00,WeatherDisplay:10.37,2013-03-03 05:30:00,
2013-03-02 23:35:00,49.3,39.9,30.31,ESE,104,0.0,1.1,70,0.00,,FEW,0.00,WeatherDisplay:10.37,2013-03-03 05:35:00,
2013-03-02 23:40:00,49.4,40.0,30.31,ESE,104,0.0,0.0,70,0.00,,FEW,0.00,WeatherDisplay:10.37,2013-03-03 05:40:00,
2013-03-02 23:45:00,49.5,40.5,30.31,SE,134,0.0,0.0,71,0.00,,FEW,0.00,WeatherDisplay:10.37,2013-03-03 05:45:00,
2013-03-02 23:50:00,49.6,40.6,30.31,SE,137,0.0,1.1,71,0.00,,FEW,0.00,WeatherDisplay:10.37,2013-03-03 05:50:00,
2013-03-02 23:55:00,50.2,41.5,30.31,SE,141,0.0,0.0,72,0.00,,FEW,0.00,WeatherDisplay:10.37,2013-03-03 05:55:00,